CW5456 Weather Reports


Display with metric or nautical units.
time (UTC)temp
F
wind
direction
speed
MPH
gust
MPH
rain 1hr
in
rain 24hr
in
rain mn
in
humidity
%
barometer
mb
20171021193021 49 86 10.0 14.0 0.00 0.17 0.10 91 1005.0
20171021192021 49 87 6.0 14.0 0.00 0.17 0.10 91 1005.0
20171021191024 49 118 8.0 15.0 0.00 0.17 0.10 91 1005.1
20171021190020 49 81 1.0 20.0 0.00 0.17 0.10 92 1005.1
20171021185020 49 123 9.0 19.0 0.00 0.17 0.10 92 1005.2
20171021184020 50 85 11.0 16.0 0.00 0.17 0.10 92 1005.4
20171021183023 50 91 7.0 15.0 0.00 0.17 0.10 92 1005.4
20171021182022 49 82 6.0 14.0 0.00 0.17 0.10 92 1005.8
20171021181019 49 77 2.0 17.0 0.00 0.17 0.10 92 1005.6
20171021180019 49 63 4.0 10.0 0.00 0.17 0.10 92 1005.8
20171021175021 49 71 6.0 14.0 0.00 0.17 0.10 92 1005.8
20171021174018 49 94 8.0 12.0 0.00 0.17 0.10 92 1005.8
20171021173018 48 3 3.0 12.0 0.00 0.17 0.10 92 1005.9
20171021172020 48 104 9.0 16.0 0.00 0.17 0.10 96 1005.9
20171021171018 48 82 9.0 14.0 0.00 0.17 0.10 92 1006.0
20171021170020 48 94 9.0 17.0 0.00 0.17 0.10 92 1006.2
20171021165016 48 150 1.0 18.0 0.00 0.17 0.10 92 1006.1
20171021164019 47 131 8.0 15.0 0.00 0.17 0.10 92 1006.2
20171021163016 47 84 2.0 10.0 0.00 0.17 0.10 92 1006.4
20171021162019 47 56 3.0 10.0 0.00 0.17 0.10 92 1006.4
20171021161015 47 77 4.0 12.0 0.01 0.17 0.10 92 1006.4
20171021160018 47 151 4.0 15.0 0.01 0.17 0.10 92 1006.6
20171021155015 47 133 5.0 11.0 0.01 0.18 0.10 92 1006.7
20171021154015 47 114 2.0 12.0 0.01 0.18 0.10 92 1006.5
20171021153014 47 95 4.0 11.0 0.02 0.18 0.10 92 1006.6
20171021152014 47 116 4.0 10.0 0.02 0.18 0.10 92 1006.6
20171021151013 47 89 3.0 14.0 0.02 0.17 0.09 92 1006.6
20171021150017 47 117 4.0 13.0 0.02 0.17 0.09 92 1006.6
20171021145013 47 107 2.0 13.0 0.03 0.17 0.09 92 1006.9
20171021144012 47 75 6.0 12.0 0.04 0.17 0.09 92 1006.9
20171021143013 47 96 5.0 10.0 0.03 0.16 0.08 92 1006.9
20171021142015 47 71 3.0 12.0 0.04 0.16 0.08 92 1006.9
20171021141012 47 91 3.0 12.0 0.03 0.15 0.07 92 1007.2
20171021140011 47 89 7.0 10.0 0.04 0.15 0.07 92 1007.2
20171021135014 47 108 7.0 13.0 0.03 0.14 0.06 92 1007.3
20171021134011 47 71 7.0 16.0 0.03 0.13 0.05 92 1007.4
20171021133011 47 91 9.0 10.0 0.03 0.13 0.05 92 1007.5
20171021132010 47 95 7.0 11.0 0.02 0.12 0.04 92 1007.7
20171021131010 47 78 10.0 10.0 0.02 0.12 0.04 91 1007.9
20171021130010 47 56 7.0 13.0 0.01 0.11 0.03 91 1008.0
20171021125009 47 120 5.0 12.0 0.01 0.11 0.03 91 1008.2
20171021124009 47 61 12.0 12.0 0.01 0.10 0.02 91 1008.4
20171021123012 47 86 1.0 11.0 0.01 0.10 0.02 91 1008.5
20171021122009 47 105 1.0 11.0 0.01 0.10 0.02 91 1008.6
20171021121011 47 79 3.0 15.0 0.01 0.10 0.02 91 1008.8
20171021120008 47 100 4.0 12.0 0.01 0.10 0.02 91 1008.9
20171021115007 47 104 5.0 16.0 0.01 0.10 0.02 91 1009.0
20171021114010 47 77 3.0 7.0 0.00 0.09 0.01 91 1009.1
20171021113007 47 108 2.0 11.0 0.00 0.09 0.01 91 1009.6
20171021112007 47 93 0.0 10.0 0.01 0.09 0.01 91 1009.5
20171021111006 47 135 7.0 12.0 0.01 0.09 0.01 91 1009.7
20171021110009 47 121 4.0 11.0 0.01 0.09 0.01 91 1009.9
20171021105005 47 115 4.0 10.0 0.01 0.09 0.01 91 1010.0
20171021104005 47 100 2.0 10.0 0.01 0.09 0.01 91 1010.1
20171021103005 47 89 3.0 12.0 0.01 0.09 0.01 91 1010.1
20171021102005 47 98 3.0 6.0 0.00 0.08 0.00 91 1010.2
20171021101007 47 87 1.0 12.0 0.00 0.08 0.00 91 1010.4
20171021100004 47 99 0.0 10.0 0.00 0.08 0.00 91 1010.5
20171021095007 47 120 4.0 7.0 0.00 0.08 0.00 91 1010.6
20171021094004 47 189 0.0 6.0 0.00 0.08 0.00 91 1010.6
20171021093003 47 103 0.0 7.0 0.00 0.08 0.00 91 1010.7
20171021092003 47 132 6.0 9.0 0.00 0.08 0.00 91 1010.7
20171021091003 47 135 2.0 12.0 0.00 0.08 0.00 91 1010.6
20171021090003 47 125 9.0 11.0 0.00 0.08 0.00 91 1010.7
20171021085002 47 118 11.0 18.0 0.00 0.08 0.00 91 1010.5
20171021084005 46 78 6.0 18.0 0.00 0.08 0.00 91 1010.5
20171021083001 46 139 1.0 15.0 0.00 0.08 0.00 91 1010.6
20171021082001 46 127 4.0 12.0 0.00 0.08 0.00 91 1010.7
20171021081000 46 116 6.0 12.0 0.00 0.08 0.00 91 1010.7
20171021080003 46 52 5.0 10.0 0.00 0.08 0.00 91 1010.7
20171021075000 46 129 7.0 15.0 0.00 0.08 0.00 91 1010.6
20171021074000 46 84 10.0 14.0 0.00 0.08 0.00 92 1010.6
20171021073002 46 149 9.0 14.0 0.00 0.08 0.00 92 1010.8
20171021071959 46 93 3.0 10.0 0.00 0.08 0.00 91 1010.9
20171021070959 46 117 2.0 11.0 0.00 0.08 0.00 92 1011.0
20171021070028 46 125 2.0 15.0 0.00 0.08 0.00 92 1011.0
20171021064958 45 35 2.0 19.0 0.00 0.08 0.08 92 1011.1
20171021063958 45 119 3.0 11.0 0.00 0.08 0.08 92 1011.1
20171021063027 44 97 2.0 7.0 0.00 0.08 0.08 91 1011.2
20171021062027 44 96 0.0 3.0 0.00 0.08 0.08 92 1011.2
20171021061027 44 95 0.0 6.0 0.00 0.08 0.08 92 1011.4
20171021060030 45 128 1.0 8.0 0.00 0.08 0.08 92 1011.4
20171021055026 45 60 2.0 8.0 0.00 0.08 0.08 91 1011.4
20171021054026 45 133 0.0 9.0 0.00 0.08 0.08 91 1011.4
20171021053026 45 90 0.0 4.0 0.00 0.08 0.08 91 1011.4
20171021052028 45 81 0.0 2.0 0.00 0.08 0.08 91 1011.4
20171021051025 45 81 0.0 3.0 0.00 0.08 0.08 91 1011.3
20171021050025 45 81 0.0 2.0 0.00 0.08 0.08 91 1011.4
20171021045027 45 81 0.0 1.0 0.00 0.09 0.08 91 1011.4
20171021044027 46 81 1.0 3.0 0.00 0.09 0.08 91 1011.2
20171021043024 46 81 0.0 1.0 0.00 0.09 0.08 91 1011.2
20171021042023 46 81 0.0 2.0 0.00 0.10 0.08 91 1011.0
20171021041027 47 81 0.0 2.0 0.00 0.10 0.08 91 1011.1
20171021040023 47 81 0.0 0.0 0.00 0.10 0.08 91 1011.1
20171021035023 47 81 0.0 8.0 0.00 0.10 0.08 91 1011.0
20171021034025 47 78 0.0 4.0 0.00 0.10 0.08 91 1010.9
20171021033022 48 92 0.0 1.0 0.00 0.10 0.08 91 1010.8
20171021032022 48 91 0.0 1.0 0.00 0.10 0.08 91 1010.7
20171021031024 48 92 0.0 3.0 0.00 0.10 0.08 91 1010.6
20171021030021 49 91 2.0 4.0 0.00 0.10 0.08 91 1010.6
20171021025021 49 74 1.0 8.0 0.00 0.10 0.08 91 1010.5
20171021024023 48 65 3.0 7.0 0.00 0.10 0.08 91 1010.4
20171021023020 49 77 0.0 8.0 0.00 0.10 0.08 91 1010.4
20171021021019 48 85 0.0 8.0 0.00 0.10 0.08 91 1010.0
20171021020023 48 85 3.0 10.0 0.00 0.10 0.08 91 1009.9
20171021015019 48 87 4.0 8.0 0.00 0.10 0.08 91 1009.8
20171021014019 48 96 4.0 9.0 0.00 0.10 0.08 91 1009.7
20171021013022 48 71 6.0 11.0 0.00 0.10 0.08 91 1009.5
20171021012018 48 112 4.0 10.0 0.00 0.10 0.08 91 1009.4
20171021011021 48 81 8.0 8.0 0.00 0.10 0.08 91 1009.0
20171021010018 49 100 2.0 5.0 0.00 0.10 0.08 90 1009.0
20171021005017 49 81 2.0 5.0 0.00 0.10 0.08 90 1008.8
20171021004020 49 139 3.0 5.0 0.00 0.10 0.08 90 1008.8
20171021003020 49 139 4.0 6.0 0.00 0.10 0.08 90 1008.7
20171021002016 49 89 2.0 4.0 0.00 0.10 0.08 89 1008.5
20171021001016 49 52 3.0 3.0 0.00 0.10 0.08 89 1008.3
20171020235030 49 14 0.0 4.0 0.00 0.10 0.08 88 1008.0
20171020234028 49 14 0.0 6.0 0.00 0.10 0.08 87 1007.7
20171020233857 49 355 6.0 9.0 0.02 0.10 0.08 87 1007.6
20171020232024 49 358 8.0 12.0 0.06 0.10 0.08 87 1007.5
20171020231024 49 337 9.0 9.0 0.07 0.10 0.08 88 1007.6
20171020230023 49 327 4.0 10.0 0.07 0.10 0.08 88 1007.6
20171020225003 49 308 6.0 10.0 0.07 0.10 0.08 87 1007.5
20171020224003 50 295 0.0 11.0 0.07 0.10 0.08 86 1007.6
20171020223003 52 235 1.0 10.0 0.05 0.08 0.06 85 1007.5
20171020221005 53 186 5.0 7.0 0.00 0.04 0.01 83 1006.9
20171020220008 53 160 0.0 7.0 0.00 0.04 0.01 81 1006.7
20171020215005 54 156 0.0 6.0 0.00 0.04 0.01 81 1006.6
20171020214005 53 125 3.0 6.0 0.00 0.04 0.01 81 1006.3
20171020213004 54 47 0.0 10.0 0.00 0.04 0.01 80 1006.2
20171020212004 54 151 4.0 11.0 0.00 0.06 0.01 81 1006.1
20171020211004 53 133 4.0 15.0 0.00 0.09 0.01 82 1005.9
20171020210004 53 159 0.0 10.0 0.00 0.11 0.01 82 1005.9
20171020205003 53 123 3.0 10.0 0.00 0.11 0.01 82 1005.8
20171020204003 53 179 0.0 9.0 0.00 0.11 0.01 83 1005.8
20171020203003 53 105 3.0 5.0 0.00 0.11 0.01 83 1005.8
20171020202002 53 130 2.0 14.0 0.00 0.11 0.01 82 1005.7
20171020201002 54 128 8.0 15.0 0.00 0.11 0.01 83 1005.5
20171020200005 53 67 2.0 16.0 0.00 0.11 0.01 87 1005.4
20171020195001 51 145 5.0 11.0 0.00 0.11 0.01 88 1005.3
20171020194001 51 143 1.0 13.0 0.00 0.11 0.01 87 1005.3